Tracking 17154 objects as of 3-August-2015
HD Live streaming from Space Station

TEAMSAT

Track TEAMSAT now!
10-day predictions
TEAMSAT is classified as:


NORAD ID: 25025
Int'l Code: 1997-066C
Perigee: 564.6 km
Apogee: 26,605.9 km
Inclination: 7.8 °
Period: 467.6 minutes
Semi major axis: 19956 km
RCS: 0.5073 m2 (medium)
Launch date: October 30, 1997
Source: European Space Agency (ESA)
Your satellite tracking list
Your tracking list is empty





NASA's NSSDC Master Catalog

Two Line Element Set (TLE):
1 25025U 97066C   15213.76241279 -.00000038  00000-0  27332-3 0  9994
2 25025 007.8164 060.5044 6524615 060.2071 003.2869 03.07953045199795

Source of the keplerian elements: AFSPC

N2YO: 306